Location: Wien
(48.2082°N, 16.3738°E)
Time: 15:17:02
(UTC+01:00)

Envisat - Pass Details

Date: 27 October 2019
Orbit: 764 x 766 km, 98.1° (Epoch: 20 November)

Event Time Altitude Azimuth Distance (km) Brightness Sun altitude
Rises 19:10:20 0° 208° (SSW) 3,222 6.5 -24.8°
Reaches altitude 10° 19:13:18 10° 226° (SW) 2,301 5.9 -25.3°
Maximum altitude 19:16:50 19° 270° (W) 1,778 5.7 -25.9°
Drops below altitude 10° 19:20:22 10° 315° (NW) 2,312 6.2 -26.5°
Sets 19:23:23 0° 333° (NNW) 3,244 6.8 -27.0°
